W9IF-4 Weather Reports


Display with metric or nautical units.
time (UTC)temp
F
wind
direction
speed
MPH
gust
MPH
rain 1hr
in
rain 24hr
in
rain mn
in
humidity
%
barometer
mb
20160505141542 60 142 5.0 0.0 0.00 0.00 0.00 1014.2
20160505141446 60 122 3.0 0.0 0.00 0.00 0.00 1014.3
20160505141242 60 153 5.0 0.0 0.00 0.00 0.00 1014.2
20160505141142 60 166 3.0 0.0 0.00 0.00 0.00 1014.3
20160505141042 60 139 3.0 0.0 0.00 0.00 0.00 1014.3
20160505140942 60 197 5.0 0.0 0.00 0.00 0.00 1014.3
20160505140842 60 163 0.0 0.0 0.00 0.00 0.00 1014.2
20160505140742 60 139 5.0 0.0 0.00 0.00 0.00 1014.3
20160505140642 60 148 4.0 0.0 0.00 0.00 0.00 1014.2
20160505140542 60 170 3.0 0.0 0.00 0.00 0.00 1014.2
20160505140442 60 184 5.0 0.0 0.00 0.00 0.00 1014.2
20160505140342 59 152 4.0 0.0 0.00 0.00 0.00 1014.2
20160505140242 59 179 5.0 0.0 0.00 0.00 0.00 1014.1
20160505140142 60 195 0.0 0.0 0.00 0.00 0.00 1014.1
20160505140042 59 195 0.0 0.0 0.00 0.00 0.00 1014.1
20160505135842 59 195 0.0 0.0 0.00 0.00 0.00 1014.1
20160505135742 59 195 0.0 0.0 0.00 0.00 0.00 1014.1
20160505135642 59 195 0.0 0.0 0.00 0.00 0.00 1014.1
20160505135542 59 195 0.0 0.0 0.00 0.00 0.00 1014.0
20160505135442 59 195 0.0 0.0 0.00 0.00 0.00 1014.0
20160505135342 59 195 0.0 0.0 0.00 0.00 0.00 1014.0
20160505135142 59 195 0.0 0.0 0.00 0.00 0.00 1014.0
20160505135042 59 195 0.0 0.0 0.00 0.00 0.00 1014.0
20160505134942 59 195 0.0 0.0 0.00 0.00 0.00 1014.0
20160505134842 59 195 0.0 0.0 0.00 0.00 0.00 1014.0
20160505134742 59 195 0.0 0.0 0.00 0.00 0.00 1014.0
20160505134642 59 195 0.0 0.0 0.00 0.00 0.00 1014.0
20160505134542 59 195 0.0 0.0 0.00 0.00 0.00 1013.9
20160505134442 59 195 0.0 0.0 0.00 0.00 0.00 1014.0
20160505134342 59 195 0.0 0.0 0.00 0.00 0.00 1013.9
20160505134242 59 195 0.0 0.0 0.00 0.00 0.00 1013.9
20160505134142 59 195 0.0 0.0 0.00 0.00 0.00 1013.9
20160505133942 59 195 0.0 0.0 0.00 0.00 0.00 1013.8
20160505133742 58 195 0.0 0.0 0.00 0.00 0.00 1013.7
20160505133642 59 195 0.0 0.0 0.00 0.00 0.00 1013.8
20160505133542 58 195 0.0 0.0 0.00 0.00 0.00 1013.8
20160505133442 59 195 0.0 0.0 0.00 0.00 0.00 1013.8
20160505133342 59 195 0.0 0.0 0.00 0.00 0.00 1013.8
20160505133242 58 195 0.0 0.0 0.00 0.00 0.00 1013.7
20160505133142 59 195 0.0 0.0 0.00 0.00 0.00 1013.8
20160505133042 59 195 0.0 0.0 0.00 0.00 0.00 1013.7
20160505132842 58 195 0.0 0.0 0.00 0.00 0.00 1013.7
20160505132642 58 195 0.0 0.0 0.00 0.00 0.00 1013.7
20160505132542 58 195 0.0 0.0 0.00 0.00 0.00 1013.6
20160505132442 58 195 0.0 0.0 0.00 0.00 0.00 1013.7
20160505132342 58 195 0.0 0.0 0.00 0.00 0.00 1013.7
20160505132142 58 195 0.0 0.0 0.00 0.00 0.00 1013.6
20160505132042 59 195 0.0 0.0 0.00 0.00 0.00 1013.6
20160505131942 58 195 0.0 0.0 0.00 0.00 0.00 1013.6
20160505131842 58 195 0.0 0.0 0.00 0.00 0.00 1013.6
20160505131642 59 195 0.0 0.0 0.00 0.00 0.00 1013.5
20160505131542 58 195 0.0 0.0 0.00 0.00 0.00 1013.6
20160505131442 58 195 0.0 0.0 0.00 0.00 0.00 1013.5
20160505131242 58 195 0.0 0.0 0.00 0.00 0.00 1013.5
20160505131142 58 195 0.0 0.0 0.00 0.00 0.00 1013.5
20160505131042 58 195 0.0 0.0 0.00 0.00 0.00 1013.6
20160505130942 58 195 0.0 0.0 0.00 0.00 0.00 1013.6
20160505130842 58 195 0.0 0.0 0.00 0.00 0.00 1013.6
20160505130642 58 195 0.0 0.0 0.00 0.00 0.00 1013.6
20160505130542 58 195 0.0 0.0 0.00 0.00 0.00 1013.6
20160505130442 58 195 0.0 0.0 0.00 0.00 0.00 1013.6
20160505130142 58 195 0.0 0.0 0.00 0.00 0.00 1013.6
20160505125942 58 195 0.0 0.0 0.00 0.00 0.00 1013.6
20160505125842 58 195 0.0 0.0 0.00 0.00 0.00 1013.6
20160505125742 58 195 0.0 0.0 0.00 0.00 0.00 1013.5
20160505125642 58 195 0.0 0.0 0.00 0.00 0.00 1013.5
20160505125541 58 195 0.0 0.0 0.00 0.00 0.00 1013.5
20160505125342 58 195 0.0 0.0 0.00 0.00 0.00 1013.5
20160505125241 58 195 0.0 0.0 0.00 0.00 0.00 1013.6
20160505125141 58 195 0.0 0.0 0.00 0.00 0.00 1013.5
20160505125042 58 195 0.0 0.0 0.00 0.00 0.00 1013.5
20160505124942 58 195 0.0 0.0 0.00 0.00 0.00 1013.6
20160505124842 58 195 0.0 0.0 0.00 0.00 0.00 1013.6
20160505124742 58 195 0.0 0.0 0.00 0.00 0.00 1013.6
20160505124641 59 195 0.0 0.0 0.00 0.00 0.00 1013.6
20160505124441 59 195 0.0 0.0 0.00 0.00 0.00 1013.6
20160505124342 58 195 0.0 0.0 0.00 0.00 0.00 1013.6
20160505124241 58 195 0.0 0.0 0.00 0.00 0.00 1013.6
20160505124142 59 195 0.0 0.0 0.00 0.00 0.00 1013.6
20160505124041 58 195 0.0 0.0 0.00 0.00 0.00 1013.7
20160505123941 59 195 0.0 0.0 0.00 0.00 0.00 1013.6
20160505123841 59 195 0.0 0.0 0.00 0.00 0.00 1013.7
20160505123641 59 195 0.0 0.0 0.00 0.00 0.00 1013.6
20160505123441 59 195 0.0 0.0 0.00 0.00 0.00 1013.7
20160505123341 58 195 0.0 0.0 0.00 0.00 0.00 1013.7
20160505123241 59 195 0.0 0.0 0.00 0.00 0.00 1013.7
20160505123141 59 195 0.0 0.0 0.00 0.00 0.00 1013.7
20160505123042 59 195 0.0 0.0 0.00 0.00 0.00 1013.7
20160505122841 58 195 0.0 0.0 0.00 0.00 0.00 1013.7
20160505122741 59 195 0.0 0.0 0.00 0.00 0.00 1013.7
20160505122441 59 195 0.0 0.0 0.00 0.00 0.00 1013.7
20160505122341 59 195 0.0 0.0 0.00 0.00 0.00 1013.7
20160505122241 59 195 0.0 0.0 0.00 0.00 0.00 1013.7
20160505122141 59 195 0.0 0.0 0.00 0.00 0.00 1013.6
20160505122041 59 195 0.0 0.0 0.00 0.00 0.00 1013.6
20160505121942 59 195 0.0 0.0 0.00 0.00 0.00 1013.7
20160505121842 59 195 0.0 0.0 0.00 0.00 0.00 1013.6
20160505121742 59 195 0.0 0.0 0.00 0.00 0.00 1013.7
20160505121641 59 195 0.0 0.0 0.00 0.00 0.00 1013.7
20160505121441 59 195 0.0 0.0 0.00 0.00 0.00 1013.7
20160505121342 59 195 0.0 0.0 0.00 0.00 0.00 1013.7
20160505121241 59 195 0.0 0.0 0.00 0.00 0.00 1013.7
20160505120941 58 195 0.0 0.0 0.00 0.00 0.00 1013.7
20160505120841 59 195 0.0 0.0 0.00 0.00 0.00 1013.7
20160505120741 59 195 0.0 0.0 0.00 0.00 0.00 1013.7
20160505120641 59 195 0.0 0.0 0.00 0.00 0.00 1013.7
20160505120541 59 195 0.0 0.0 0.00 0.00 0.00 1013.8
20160505120442 58 195 0.0 0.0 0.00 0.00 0.00 1013.7
20160505120341 59 195 0.0 0.0 0.00 0.00 0.00 1013.7
20160505120241 59 195 0.0 0.0 0.00 0.00 0.00 1013.7
20160505120141 58 195 0.0 0.0 0.00 0.00 0.00 1013.7
20160505120041 59 195 0.0 0.0 0.00 0.00 0.00 1013.7
20160505115841 59 195 0.0 0.0 0.00 0.00 0.00 1013.7
20160505115741 59 195 0.0 0.0 0.00 0.00 0.00 1013.7
20160505115642 59 195 0.0 0.0 0.00 0.00 0.00 1013.7
20160505115541 59 195 0.0 0.0 0.00 0.00 0.00 1013.7
20160505115441 59 195 0.0 0.0 0.00 0.00 0.00 1013.7
20160505115341 58 195 0.0 0.0 0.00 0.00 0.00 1013.6
20160505115141 59 195 0.0 0.0 0.00 0.00 0.00 1013.6
20160505115041 58 195 0.0 0.0 0.00 0.00 0.00 1013.6
20160505114741 59 195 0.0 0.0 0.00 0.00 0.00 1013.6
20160505114641 59 195 0.0 0.0 0.00 0.00 0.00 1013.6
20160505114541 58 195 0.0 0.0 0.00 0.00 0.00 1013.6
20160505114441 59 195 0.0 0.0 0.00 0.00 0.00 1013.6
20160505114343 59 195 0.0 0.0 0.00 0.00 0.00 1013.6
20160505114241 59 195 0.0 0.0 0.00 0.00 0.00 1013.6
20160505114141 59 195 0.0 0.0 0.00 0.00 0.00 1013.6
20160505114041 58 195 0.0 0.0 0.00 0.00 0.00 1013.6
20160505113941 58 195 0.0 0.0 0.00 0.00 0.00 1013.5
20160505113841 59 195 0.0 0.0 0.00 0.00 0.00 1013.5
20160505113741 58 195 0.0 0.0 0.00 0.00 0.00 1013.5
20160505113641 59 195 0.0 0.0 0.00 0.00 0.00 1013.5
20160505113541 59 195 0.0 0.0 0.00 0.00 0.00 1013.5
20160505113441 59 195 0.0 0.0 0.00 0.00 0.00 1013.6
20160505113341 58 195 0.0 0.0 0.00 0.00 0.00 1013.5
20160505113241 59 195 0.0 0.0 0.00 0.00 0.00 1013.5
20160505113142 58 195 0.0 0.0 0.00 0.00 0.00 1013.5
20160505113041 58 195 0.0 0.0 0.00 0.00 0.00 1013.6
20160505112841 58 195 0.0 0.0 0.00 0.00 0.00 1013.6
20160505112741 59 195 0.0 0.0 0.00 0.00 0.00 1013.6
20160505112541 59 195 0.0 0.0 0.00 0.00 0.00 1013.5
20160505112441 58 195 0.0 0.0 0.00 0.00 0.00 1013.6
20160505112341 58 195 0.0 0.0 0.00 0.00 0.00 1013.6
20160505112241 59 195 0.0 0.0 0.00 0.00 0.00 1013.7
20160505112141 58 195 0.0 0.0 0.00 0.00 0.00 1013.7
20160505112041 59 195 0.0 0.0 0.00 0.00 0.00 1013.6
20160505111941 58 195 0.0 0.0 0.00 0.00 0.00 1013.7
20160505111841 59 195 0.0 0.0 0.00 0.00 0.00 1013.7
20160505111742 58 195 0.0 0.0 0.00 0.00 0.00 1013.7
20160505111641 59 195 0.0 0.0 0.00 0.00 0.00 1013.7
20160505111541 59 195 0.0 0.0 0.00 0.00 0.00 1013.7
20160505111441 58 195 0.0 0.0 0.00 0.00 0.00 1013.7
20160505111342 58 195 0.0 0.0 0.00 0.00 0.00 1013.7
20160505111242 58 195 0.0 0.0 0.00 0.00 0.00 1013.7
20160505111141 59 195 0.0 0.0 0.00 0.00 0.00 1013.7
20160505111041 58 195 0.0 0.0 0.00 0.00 0.00 1013.7
20160505110941 58 195 0.0 0.0 0.00 0.00 0.00 1013.7
20160505110841 58 195 0.0 0.0 0.00 0.00 0.00 1013.6
20160505110641 58 195 0.0 0.0 0.00 0.00 0.00 1013.7
20160505110541 58 195 0.0 0.0 0.00 0.00 0.00 1013.7
20160505110441 58 195 0.0 0.0 0.00 0.00 0.00 1013.7
20160505110341 58 195 0.0 0.0 0.00 0.00 0.00 1013.7
20160505110241 59 195 0.0 0.0 0.00 0.00 0.00 1013.7
20160505110141 59 195 0.0 0.0 0.00 0.00 0.00 1013.7
20160505110041 58 195 0.0 0.0 0.00 0.00 0.00 1013.7
20160505105841 58 195 0.0 0.0 0.00 0.00 0.00 1013.6
20160505105541 58 195 0.0 0.0 0.00 0.00 0.00 1013.6
20160505105441 58 195 0.0 0.0 0.00 0.00 0.00 1013.7
20160505105341 58 195 0.0 0.0 0.00 0.00 0.00 1013.7
20160505105231 58 195 0.0 0.0 0.00 0.00 0.00 1013.8
20160505105141 58 195 0.0 0.0 0.00 0.00 0.00 1013.8
20160505105041 58 195 0.0 0.0 0.00 0.00 0.00 1013.7
20160505104941 59 195 0.0 0.0 0.00 0.00 0.00 1013.8
20160505104841 58 195 0.0 0.0 0.00 0.00 0.00 1013.8
20160505104741 58 195 0.0 0.0 0.00 0.00 0.00 1013.7
20160505104541 58 195 0.0 0.0 0.00 0.00 0.00 1013.7
20160505104342 59 195 0.0 0.0 0.00 0.00 0.00 1013.7
20160505104241 58 195 0.0 0.0 0.00 0.00 0.00 1013.7
20160505104141 58 195 0.0 0.0 0.00 0.00 0.00 1013.7
20160505104041 58 195 0.0 0.0 0.00 0.00 0.00 1013.7
20160505103941 59 195 0.0 0.0 0.00 0.00 0.00 1013.7
20160505103641 58 195 0.0 0.0 0.00 0.00 0.00 1013.8
20160505103441 58 195 0.0 0.0 0.00 0.00 0.00 1013.8
20160505103341 59 195 0.0 0.0 0.00 0.00 0.00 1013.8
20160505103242 58 195 0.0 0.0 0.00 0.00 0.00 1013.8
20160505103041 59 195 0.0 0.0 0.00 0.00 0.00 1013.9
20160505102841 59 195 0.0 0.0 0.00 0.00 0.00 1013.9
20160505102641 58 195 0.0 0.0 0.00 0.00 0.00 1013.9
20160505102542 59 195 0.0 0.0 0.00 0.00 0.00 1013.8
20160505102441 59 186 3.0 0.0 0.00 0.00 0.00 1013.9
20160505102341 59 208 4.0 0.0 0.00 0.00 0.00 1013.9
20160505102241 59 219 3.0 0.0 0.00 0.00 0.00 1013.9
20160505102141 59 224 5.0 0.0 0.00 0.00 0.00 1013.9
20160505101942 59 207 6.0 0.0 0.00 0.00 0.00 1013.9
20160505101841 59 221 5.0 0.0 0.00 0.00 0.00 1014.0
20160505101741 59 203 5.0 0.0 0.00 0.00 0.00 1014.0
20160505101641 59 232 6.0 0.0 0.00 0.00 0.00 1014.0